Weather in San Gimignano

Italy     43°28′07″N   11°02′34″E
temp.,
°C
wind,
m/s
gust,
m/s
humid.,
%
clouds,
%
prec.,
mm/h
press.,
hPa
HPBL,
m
18 january, tue
tue1801:00+5sse11912 0.0 102810
04:00+4ese11913 0.0 102810
07:00+4ese11920 0.0 102910
10:00+7ene11820 0.0 1031139
13:00+11ene12640 0.0 1031468
16:00+11nne11650 0.0 103011
19:00+7ene11710 0.0 103110
22:00+5ene11760 0.0 103310
19 january, wed
wed1901:00+4e11830 0.0 103310
04:00+3e11850 0.0 103110
07:00+3ese11850 0.0 103110
10:00+6ese12730 0.0 1031155
13:00+10sw12590 0.0 1029581
16:00+10wnw22700 0.0 102746
19:00+6ssw22874 0.0 102611
22:00
20 january, thu
thu2001:00+6se2392100 0.3 102363
04:00+6sse239375 0.4 102180
07:00
10:00+9wsw138040 0.0 1020276
13:00+11w456892 0.2 10181125
16:00+10wsw367414 0.2 1016402
19:00+6ssw228819 0.2 101710
22:00+7sse1183100 0.0 101610
21 january, fri
fri2101:00+7nne1180100 0.0 101610
04:00+7ene1184100 0.1 101615
07:00+6nne2489100 0.1 1016133
10:00+6ne61082100 0.0 1019515
13:00+7ne5575100 0.0 1019859
16:00+6ne576435 0.0 1020629
19:00+2ne59712 0.0 1022319
22:00+1ne35783 0.0 1025130
22 january, sat
sat2201:000ne24843 0.0 102581
04:00−1ne11855 0.0 102510
07:00−1ene11845 0.0 102510
10:00+2ne12640 0.0 1026291
13:00+6ne22470 0.0 1026643
16:00+6n11520 0.0 102535
19:00+1ene11570 0.0 102710
22:00+1e11580 0.0 102910